When you browse on this site, cookies collect data to enhance your experience and personalize the content and advertising you see.
Visit our Privacy Policy to learn more. By continuing to use the site, you agree to this use of cookies and data.
  • In Portugal
  • List of Countries
  • For 7 days
  • Water Temperature
  • Satellite Maps
  • Weather Map
  • Weather Widgets
  • user-avatar
    Login

    Hourly Weather Khmil'nyk

    Today, 16 November, Friday

    Time Temperature Precipitation Wind Pressure Humidity
    00:00 -1°C° 0 mm 4 mps 748 mmHg 86%
    01:00 -1°C° 0 mm 3 mps 749 mmHg 87%
    02:00 -1°C° 0 mm 3 mps 749 mmHg 87%
    03:00 -1°C° 0 mm 3 mps 749 mmHg 87%
    04:00 -3°C° 0 mm 4 mps 750 mmHg 86%
    05:00 -3°C° 0 mm 4 mps 750 mmHg 86%
    06:00 -3°C° 0 mm 4 mps 750 mmHg 82%
    07:00 -4°C° 0 mm 5 mps 750 mmHg 78%
    08:00 -4°C° 0 mm 5 mps 750 mmHg 72%
    09:00 -2°C° 0 mm 5 mps 750 mmHg 64%
    10:00 -2°C° 0 mm 5 mps 751 mmHg 56%
    11:00 -2°C° 0 mm 6 mps 751 mmHg 47%
    12:00 -1°C° 0 mm 6 mps 751 mmHg 46%
    13:00 -1°C° 0 mm 6 mps 751 mmHg 46%
    14:00 -1°C° 0 mm 6 mps 751 mmHg 45%
    15:00 -1°C° 0 mm 5 mps 751 mmHg 49%
    16:00 -2°C° 0 mm 5 mps 751 mmHg 53%
    17:00 -4°C° 0 mm 5 mps 751 mmHg 58%
    18:00 -4°C° 0 mm 5 mps 751 mmHg 59%
    19:00 -4°C° 0 mm 5 mps 751 mmHg 60%
    20:00 -4°C° 0 mm 5 mps 751 mmHg 62%
    21:00 -4°C° 0 mm 5 mps 751 mmHg 61%
    22:00 -4°C° 0 mm 5 mps 751 mmHg 61%
    23:00 -3°C° 0 mm 4 mps 752 mmHg 60%

    Tomorrow, 17 November, Saturday

    Time Temperature Precipitation Wind Pressure Humidity
    00:00 -3°C° 0 mm 4 mps 752 mmHg 61%
    01:00 -3°C° 0 mm 4 mps 752 mmHg 62%
    02:00 -3°C° 0 mm 4 mps 752 mmHg 62%
    03:00 -3°C° 0 mm 4 mps 752 mmHg 64%
    04:00 -4°C° 0 mm 4 mps 752 mmHg 66%
    05:00 -4°C° 0 mm 4 mps 752 mmHg 68%
    06:00 -4°C° 0 mm 4 mps 752 mmHg 68%
    07:00 -4°C° 0 mm 3 mps 752 mmHg 69%
    08:00 -4°C° 0 mm 3 mps 752 mmHg 69%
    09:00 -2°C° 0 mm 3 mps 752 mmHg 67%
    10:00 -2°C° 0 mm 3 mps 752 mmHg 64%
    11:00 -1°C° 0 mm 3 mps 752 mmHg 62%
    12:00 -1°C° 0 mm 3 mps 752 mmHg 61%
    13:00 0°C° 0 mm 3 mps 752 mmHg 60%
    14:00 0°C° 0 mm 3 mps 751 mmHg 59%
    15:00 0°C° 0 mm 3 mps 751 mmHg 61%
    16:00 -1°C° 0 mm 2 mps 751 mmHg 63%
    17:00 -1°C° 0 mm 2 mps 751 mmHg 65%
    18:00 -1°C° 0 mm 2 mps 751 mmHg 65%
    19:00 -2°C° 0 mm 2 mps 750 mmHg 64%
    20:00 -2°C° 0 mm 2 mps 750 mmHg 63%
    21:00 -2°C° 0 mm 2 mps 750 mmHg 63%
    22:00 -3°C° 0 mm 2 mps 750 mmHg 64%
    23:00 -3°C° 0 mm 2 mps 749 mmHg 64%

    Day after tomorrow, 18 November, Sunday

    Time Temperature Precipitation Wind Pressure Humidity
    00:00 -3°C° 0 mm 2 mps 749 mmHg 63%
    01:00 -2°C° 0 mm 1 mps 749 mmHg 63%
    02:00 -2°C° 0 mm 1 mps 748 mmHg 63%
    03:00 -2°C° 0 mm 1 mps 748 mmHg 62%
    04:00 -2°C° 0 mm 1 mps 747 mmHg 61%
    05:00 -2°C° 0 mm 1 mps 747 mmHg 60%
    06:00 -4°C° 0 mm 2 mps 746 mmHg 59%
    07:00 -4°C° 0 mm 2 mps 746 mmHg 58%
    08:00 -4°C° 0 mm 2 mps 745 mmHg 57%
    09:00 -2°C° 0 mm 2 mps 745 mmHg 52%
    10:00 -1°C° 0 mm 2 mps 745 mmHg 46%
    11:00 +2°C° 0 mm 2 mps 744 mmHg 40%
    12:00 +2°C° 0 mm 2 mps 743 mmHg 40%
    13:00 +2°C° 0 mm 3 mps 743 mmHg 39%
    14:00 +2°C° 0 mm 3 mps 742 mmHg 39%
    15:00 +2°C° 0 mm 2 mps 742 mmHg 43%
    16:00 +1°C° 0 mm 2 mps 741 mmHg 47%
    17:00 -1°C° 0 mm 2 mps 741 mmHg 51%
    18:00 -1°C° 0 mm 2 mps 740 mmHg 54%
    19:00 -2°C° 0 mm 2 mps 740 mmHg 57%
    20:00 -2°C° 0 mm 2 mps 740 mmHg 61%
    21:00 0°C° 0 mm 1 mps 740 mmHg 65%
    22:00 -1°C° 0 mm 1 mps 740 mmHg 69%
    23:00 -1°C° 0 mm 1 mps 739 mmHg 73%

    19 November, Monday

    Time Temperature Precipitation Wind Pressure Humidity
    00:00 -1°C° 0.1 mm 1 mps 739 mmHg 75%
    01:00 -1°C° 0.1 mm 1 mps 739 mmHg 76%
    02:00 0°C° 0.1 mm 1 mps 739 mmHg 78%
    03:00 -1°C° 0 mm 0 mps 739 mmHg 80%
    04:00 -2°C° 0 mm 0 mps 738 mmHg 82%
    05:00 -2°C° 0 mm 0 mps 738 mmHg 83%
    06:00 -2°C° 0 mm 0 mps 738 mmHg 82%
    07:00 0°C° 0 mm 1 mps 738 mmHg 81%
    08:00 0°C° 0 mm 1 mps 739 mmHg 80%
    09:00 0°C° 0 mm 1 mps 739 mmHg 74%
    10:00 +1°C° 0 mm 1 mps 739 mmHg 68%
    11:00 +1°C° 0 mm 2 mps 739 mmHg 63%
    12:00 +2°C° 0 mm 2 mps 739 mmHg 59%
    13:00 +2°C° 0 mm 2 mps 739 mmHg 56%
    14:00 +2°C° 0 mm 2 mps 739 mmHg 53%
    15:00 +1°C° 0 mm 2 mps 739 mmHg 56%
    16:00 -1°C° 0 mm 2 mps 739 mmHg 60%
    17:00 -2°C° 0 mm 2 mps 739 mmHg 63%
    18:00 -2°C° 0 mm 2 mps 739 mmHg 64%
    19:00 -3°C° 0 mm 2 mps 739 mmHg 66%
    20:00 -3°C° 0 mm 2 mps 739 mmHg 67%
    21:00 -3°C° 0 mm 2 mps 739 mmHg 67%
    22:00 -3°C° 0 mm 2 mps 740 mmHg 67%
    23:00 -3°C° 0 mm 2 mps 740 mmHg 67%

    20 November, Tuesday

    Time Temperature Precipitation Wind Pressure Humidity
    00:00 -3°C° 0 mm 2 mps 740 mmHg 68%
    01:00 -3°C° 0 mm 2 mps 740 mmHg 68%
    02:00 -3°C° 0 mm 2 mps 740 mmHg 68%
    03:00 -3°C° 0 mm 2 mps 740 mmHg 70%
    04:00 -3°C° 0 mm 2 mps 739 mmHg 73%
    05:00 -3°C° 0 mm 2 mps 739 mmHg 75%
    06:00 -4°C° 0 mm 3 mps 739 mmHg 78%
    07:00 -4°C° 0 mm 3 mps 739 mmHg 81%
    08:00 -4°C° 0 mm 3 mps 739 mmHg 85%
    09:00 -2°C° 0 mm 3 mps 739 mmHg 83%
    10:00 -1°C° 0 mm 3 mps 739 mmHg 82%
    11:00 0°C° 0 mm 3 mps 740 mmHg 80%
    12:00 0°C° 0 mm 3 mps 739 mmHg 80%
    13:00 +1°C° 0 mm 3 mps 739 mmHg 80%
    14:00 +1°C° 0 mm 3 mps 738 mmHg 81%
    15:00 0°C° 0 mm 4 mps 738 mmHg 84%
    16:00 -1°C° 0 mm 4 mps 738 mmHg 88%
    17:00 -1°C° 0 mm 4 mps 738 mmHg 91%
    18:00 -1°C° 0.2 mm 5 mps 737 mmHg 92%
    19:00 -1°C° 0.2 mm 5 mps 737 mmHg 92%
    20:00 -1°C° 0.2 mm 5 mps 737 mmHg 92%
    21:00 -2°C° 0.3 mm 6 mps 736 mmHg 92%
    22:00 -2°C° 0.3 mm 6 mps 736 mmHg 91%
    23:00 -2°C° 0.3 mm 7 mps 735 mmHg 91%

    21 November, Wednesday

    Time Temperature Precipitation Wind Pressure Humidity
    00:00 -2°C° 1.3 mm 7 mps 735 mmHg 91%
    01:00 -2°C° 1.3 mm 7 mps 734 mmHg 92%
    02:00 -2°C° 1.3 mm 8 mps 733 mmHg 92%
    03:00 -2°C° 1.8 mm 7 mps 733 mmHg 92%
    04:00 -2°C° 1.8 mm 7 mps 732 mmHg 93%
    05:00 -1°C° 1.8 mm 7 mps 731 mmHg 93%
    06:00 -1°C° 1.2 mm 7 mps 731 mmHg 94%
    07:00 -1°C° 1.2 mm 7 mps 731 mmHg 94%
    08:00 -1°C° 1.2 mm 6 mps 731 mmHg 95%
    09:00 -1°C° 0.1 mm 6 mps 731 mmHg 96%
    10:00 0°C° 0.1 mm 5 mps 731 mmHg 96%
    11:00 +1°C° 0.1 mm 5 mps 731 mmHg 97%
    12:00 +1°C° 0.1 mm 5 mps 731 mmHg 97%
    13:00 +1°C° 0.1 mm 4 mps 731 mmHg 97%
    14:00 +1°C° 0.1 mm 4 mps 731 mmHg 98%
    15:00 +1°C° 0.1 mm 4 mps 731 mmHg 98%
    16:00 +1°C° 0.1 mm 4 mps 731 mmHg 98%
    17:00 +1°C° 0.1 mm 4 mps 731 mmHg 98%
    18:00 +1°C° 0.1 mm 4 mps 732 mmHg 98%
    19:00 +1°C° 0.1 mm 4 mps 732 mmHg 98%
    20:00 +1°C° 0.1 mm 4 mps 732 mmHg 98%
    21:00 0°C° 0.1 mm 4 mps 732 mmHg 97%
    22:00 0°C° 0.1 mm 4 mps 732 mmHg 97%
    23:00 0°C° 0.1 mm 4 mps 732 mmHg 97%
    Show more